Home   Weather   Monterrey   Past weeks

Flag for Mexico Past Weather in Monterrey, Nuevo León, Mexico — Yesterday and Last 2 Weeks

Now
82 °F

Partly sunny.


Feels Like: 85 °F
Forecast: 73 / 87 °F
Wind: 10 mph from Northeast

Location: Aerop. Internacional Monterrey - N. L.

Current Time: Aug 30, 2016 at 2:12:34 PM

Latest Report: Aug 30, 2016 at 1:40 PM


Visibility: 10 mi

Pressure: 30.01 "Hg (28.21 "Hg at 545m altitude)

Humidity: 62%

Dew Point: 68 °F

Location of MonterreyLocation

Past Weather in Monterrey — Graph

°F

Monterrey Temperature Yesterday

Maximum temperature yesterday: 86 °F (at 3:43 PM)
Minimum temperature yesterday: 73 °F (at 6:40 AM)
Average temperature yesterday: 79 °F

High & Low Weather Summary for the Past Weeks

 TemperatureHumidityPressure
High93 °F (Aug 23, 3:40 PM)100% (Aug 17, 6:42 AM)30.17 "Hg (Aug 17, 6:42 AM)
Low64 °F (Aug 21, 8:02 AM)20% (Aug 24, 6:40 PM)29.83 "Hg (Aug 19, 6:40 PM)
Average81 °F60%30.00 "Hg
* Reported Aug 16 7:45 AM — Aug 30 12:50 PM, Monterrey, Weather by CustomWeather, © 2016

Note: Actual official high and low records may vary slightly from our data, if they occured in-between our weather recording intervals... More about our weather records

Advertising

Monterrey Weather History for the Previous 24 Hours

Scroll right to see more
 ConditionsComfort  
Time TempWeatherWind HumidityBarometerVisibility
12:50 PM
Tue, Aug 30
81 °FLight rain. Broken clouds.10 mph74%30.03 "Hg6 mi
11:40 AM82 °FPartly sunny.7 mph62%30.03 "Hg10 mi
10:40 AM81 °FBroken clouds.10 mph66%30.03 "Hg10 mi
9:40 AM77 °FBroken clouds.10 mph79%30.03 "Hg10 mi
8:40 AM75 °FScattered clouds.6 mph78%30.01 "Hg10 mi
7:51 AM75 °FMostly cloudy.10 mph78%30.01 "Hg10 mi
6:41 AM75 °FPassing clouds.10 mph78%30.01 "Hg7 mi
11:40 PM
Mon, Aug 29
79 °FPartly cloudy.No wind65%30.03 "Hg10 mi
10:40 PM77 °FPartly cloudy.2 mph83%30.02 "Hg10 mi
9:40 PM79 °FPassing clouds.3 mph79%29.99 "Hg10 mi
8:40 PM79 °FScattered clouds.6 mph74%29.96 "Hg8 mi
7:41 PM81 °FBroken clouds.6 mph70%29.97 "Hg8 mi
6:43 PM81 °FBroken clouds.6 mph70%29.96 "Hg10 mi
5:40 PM77 °FBroken clouds.9 mph89%29.95 "Hg12 mi
4:44 PM77 °FDrizzle. Partly sunny.9 mph74%29.95 "Hg6 mi
3:43 PM86 °FPartly sunny.12 mph52%29.92 "Hg10 mi
2:40 PM82 °FScattered clouds.2 mph62%30.00 "Hg8 mi
Weather by CustomWeather, © 2016

See weather overviewHow to use our weather pages